{"data":{"norad_id":66039,"intl_designator":"2025-233G","name":"QIANFAN-97","alt_names":[],"object_type":"PAYLOAD","status":"ACTIVE","operator":null,"country":"PRC","launch_date":"2025-10-17","launch_site_code":"TAISC","launch_vehicle":null,"mission":null,"orbit_class":"UNKNOWN","rcs_meters":null,"size_class":null,"mass_kg":null,"dimensions":null,"purposes":[],"wikipedia_slug":null,"has_3d_model":false,"image_url":null,"decayed_at":null,"tle_current":{"epoch":"2026-09-20T09:32:54.960576Z","epoch_age_seconds":149204,"freshness":"FRESH","line1":"1 66039U 25233G   26263.39785834  .00000042  00000+0  46353-4 0  9995","line2":"2 66039  89.0059  33.5676 0001817  94.2793 265.8566 13.51038945 46038","mean_motion":13.51038945,"eccentricity":0.0001817,"inclination_deg":89.0059,"raan_deg":33.5676,"arg_perigee_deg":94.2793,"mean_anomaly_deg":265.8566,"bstar":4.6353e-5,"rev_number":4603,"period_min":106.58464031176,"perigee_km":1067.0854358986,"apogee_km":1069.7915214275,"semimajor_km":7446.575478663,"source":"CELESTRAK","updated_at":"2026-09-21T09:00:15.733046Z"}}}